Belize City, Belize

1:05 PM CST on January 22, 2017 (GMT -0600)
Philip S W Goldson International

Weather History for MZBZ - September, 2012

Change the Weather History Date:

Friday, September 14, 2012

  Actual Average Record
Temperature  
Mean Temperature 82 °F -  
Max Temperature 89 °F 88 °F 95 °F (2004)
Min Temperature 75 °F 74 °F 75 °F (2001)
Cooling Degree Days 17    
Growing Degree Days 32 (Base 50)    
Moisture  
Dew Point 76 °F    
Average Humidity 78    
Maximum Humidity 100    
Minimum Humidity 58    
Precipitation  
Precipitation 0.00 in 0.35 in - ()
Sea Level Pressure  
Sea Level Pressure 29.93 in    
Wind  
Wind Speed 4 mph ()    
Max Wind Speed 9 mph    
Max Gust Speed -    
Visibility 7.0 miles    
Events Fog    
Averages and records for this station are not official NWS values.
T = Trace of Precipitation, MM = Missing Value Source: Averaged Metar Reports

Daily Weather History Graph

Daily Weather History Graph

Search for Another Location

Airport or City:

Trip Planner

Search our weather history database for the weather conditions in past years. The results will help you decide how hot, cold, wet, or windy it might be!

Date:

Astronomy

Sep. 14, 2012 Rise Set
Actual Time 5:41 AM CST 5:55 PM CST
Civil Twilight 5:19 AM CST 6:17 PM CST
Nautical Twilight 4:54 AM CST 6:42 PM CST
Astronomical Twilight 4:28 AM CST 7:08 PM CST
Moon 4:12 AM CST (9/14) 4:50 PM CST (9/14)
Length of Visible Light 12h 57m
Length of Day
12h 14m
Waning Crescent, 2% of the Moon is Illuminated
Sep 14
Waning Crescent
Sep 15
New
Sep 22
First Quarter
Sep 29
Full
Oct 8
Last Quarter

Hourly Weather History & Observations

Time (CST) Temp. Heat Index Dew Point Humidity Pressure Visibility Wind Dir Wind Speed Gust Speed Precip Events Conditions
5:00 AM 75.2 °F - 75.2 °F 100% 29.91 in 3.7 mi Calm Calm - N/A Fog Fog
6:00 AM 76 °F - 75 °F 95% 29.93 in 1 mi West 3.5 mph - - Fog Heavy Fog
6:00 AM 75.2 °F - 75.2 °F 100% 29.92 in 1.2 mi West 3.5 mph - N/A   Unknown
7:00 AM 77.0 °F - 75.2 °F 94% 29.92 in 6.2 mi West 5.8 mph - N/A   Scattered Clouds
8:00 AM 78.8 °F - 77.0 °F 94% 29.95 in 6.2 mi WNW 5.8 mph - N/A   Scattered Clouds
9:00 AM 84 °F - 78 °F 78% 29.98 in 12 mi West 3.5 mph - -   Partly Cloudy
9:00 AM 84.2 °F 96.1 °F 78.8 °F 84% 29.97 in 6.2 mi West 3.5 mph - N/A   Scattered Clouds
10:00 AM 87.8 °F 99.7 °F 77.0 °F 70% 29.97 in 6.2 mi NNE 5.8 mph - N/A   Scattered Clouds
11:00 AM 87.8 °F 97.6 °F 75.2 °F 66% 29.96 in 6.2 mi ENE 8.1 mph - N/A   Scattered Clouds
12:00 PM 88 °F - 76 °F 60% 29.95 in 12 mi NE 8.1 mph - -   Partly Cloudy
12:00 PM 87.8 °F 97.6 °F 75.2 °F 66% 29.94 in 6.2 mi NE 8.1 mph - N/A   Scattered Clouds
1:00 PM 89.6 °F 102.2 °F 77.0 °F 66% 29.92 in 6.2 mi ENE 9.2 mph - N/A   Scattered Clouds
2:00 PM 89.6 °F 102.2 °F 77.0 °F 66% 29.90 in 6.2 mi ENE 9.2 mph - N/A   Partly Cloudy
3:00 PM 89 °F - 76 °F 58% 29.89 in 12 mi East 8.1 mph - -   Scattered Clouds
3:00 PM - - - N/A% - 6.2 mi North - - N/A   Scattered Clouds
4:00 PM 87.8 °F 99.7 °F 77.0 °F 70% 29.88 in 6.2 mi East 9.2 mph - N/A   Scattered Clouds
5:00 PM 86.0 °F 96.9 °F 77.0 °F 74% 29.89 in 6.2 mi ESE 6.9 mph - N/A   Mostly Cloudy
6:00 PM 83 °F - 77 °F 78% 29.94 in 12 mi East 4.6 mph - -   Scattered Clouds
6:00 PM 84.2 °F 94.1 °F 77.0 °F 79% 29.92 in 6.2 mi East 4.6 mph - N/A   Mostly Cloudy
9:00 PM 80 °F - 76 °F 85% 29.96 in 12 mi Calm Calm - -   Clear